Regional Weather Roundup
Issued by NWS

Home | Current Version | Previous Version | Text Only | Print | Product List | Glossary Off
Versions: 1 2 3 4 5 6 7 8 9 10 11 12 13 14 15 16 17 18 19 20 21 22 23 24 25 26 27 28 29 30 31 32 33 34 35 36 37 38 39 40 41 42 43 44 45 46 47 48 49 50

000
ASUS45 KBOI 272110
RWRID

IDAHO REGIONAL WEATHER ROUNDUP
NATIONAL WEATHER SERVICE BOISE ID
300 PM MDT THU AUG 27 2015

NOTE: "FAIR" INDICATES FEW OR NO CLOUDS BELOW 12000 FEET
WITH NO SIGNIFICANT WEATHER AND/OR OBSTRUCTIONS TO VISIBILITY

IDZ012-014-272200-
SOUTHWEST IDAHO


CITY           SKY/WX    TMP DP  RH WIND       PRES   REMARKS
BOISE          FAIR      90  37  15 NW8       30.10F
CALDWELL         N/A     91  43  18 N8        30.09F
MOUNTAIN HOME  FAIR      93  31  11 W12       30.09F
$$

IDZ016-017-272200-
SOUTHCENTRAL IDAHO


CITY           SKY/WX    TMP DP  RH WIND       PRES   REMARKS
BURLEY         FAIR      85  41  21 W9        30.17F
JEROME         FAIR      85  46  25 W8        30.19F
TWIN FALLS     FAIR      89  43  20 NW12      30.19F
$$

IDZ019>023-272200-
SOUTHEAST IDAHO


CITY           SKY/WX    TMP DP  RH WIND       PRES   REMARKS
IDAHO FALLS    PTSUNNY   82  49  31 VRB7      30.20F
POCATELLO      FAIR      88  44  21 W14       30.18F
REXBURG        FAIR      78  51  38 CALM      30.22F
$$

IDZ006-010-011-018-031-032-272200-
CENTRAL IDAHO MOUNTAINS


CITY           SKY/WX    TMP DP  RH WIND       PRES   REMARKS
MCCALL         FAIR      81  32  17 S17G23    30.21F
HAILEY         MOSUNNY   81  45  28 S9        30.25F
STANLEY          N/A     76  26  15 SW7       30.31F
SALMON         FAIR      82  46  28 NW7       30.05F
CHALLIS        FAIR      81  46  29 NE3       30.15F
$$

IDZ002-004-006-007-026-272200-
NORTHERN IDAHO


CITY           SKY/WX    TMP DP  RH WIND       PRES   REMARKS
LEWISTON       FAIR      90  40  17 VRB3      30.00F HAZE
LOWELL           N/A     78  56  46 CALM      30.00F
COEUR D`ALENE  FAIR      84  43  23 S7        30.03F
MULLAN PASS    FAIR      73  36  25 VRB5      30.25F HAZE
$$



USA.gov is the U.S. government's official web portal to all federal, state and local government web resources and services.